Dewpoint
59 59 59 59 58 58 58 58 57 57 57 57 56 56 56 55 51 34 30 38 41 48 45 28 28 29 28 25 21 17 5 0 5 9 13 23 20 20 20 16 18 36 42 51 60
59 59 59 59 58 58 57 57 57 57 57 57 56 56 55 55 43 29 41 44 47 47 30 27 22 27 20 25 23 15 7 4 12 15 19 23 23 21 19 18 16 19 36 54 56
58 58 59 59 58 58 57 57 57 57 57 56 56 55 54 53 35 29 46 49 49 47 36 34 31 23 20 24 26 21 9 14 16 26 28 24 23 23 18 14 16 21 23 28 47
58 58 58 58 58 57 57 57 57 57 57 56 56 55 54 44 19 37 49 48 47 42 37 33 29 17 16 17 30 19 24 21 23 28 28 24 21 18 17 16 25 28 30 29 32
58 58 57 58 58 57 57 56 56 56 56 56 56 54 46 35 30 45 47 45 43 41 38 34 28 25 14 25 27 21 23 28 27 29 27 25 22 18 18 23 30 31 30 29 29
58 58 57 57 57 57 56 56 56 56 56 56 55 53 42 34 39 45 46 43 43 40 40 38 35 35 31 28 25 32 31 28 26 21 23 22 18 26 24 30 31 31 32 32 32
58 58 57 57 57 56 56 56 56 56 56 56 54 50 42 35 42 46 47 42 43 40 37 43 41 33 34 30 37 34 26 22 18 19 20 26 20 22 27 32 30 31 33 34 33
58 57 57 57 56 56 56 55 55 56 56 55 52 50 37 43 47 45 43 41 44 43 36 44 43 37 33 36 32 25 26 18 17 23 26 25 17 24 31 32 30 32 33 34 36
58 57 57 56 56 55 55 55 55 56 57 54 50 46 36 43 40 39 41 33 39 41 38 41 42 36 36 26 23 27 18 19 20 26 26 27 24 28 31 31 32 33 33 35 36
58 57 56 56 56 55 55 55 56 55 55 52 49 42 39 28 38 46 47 43 44 41 40 39 37 33 32 28 19 20 22 24 23 26 29 27 27 28 31 33 32 33 35 36 39
57 57 56 56 55 55 55 53 48 47 49 40 39 33 33 39 45 46 47 46 43 38 33 36 32 30 28 31 28 25 25 25 26 28 31 29 30 30 31 32 33 34 36 38 42
56 57 57 56 55 55 53 46 43 41 42 44 42 41 41 43 38 44 47 41 40 35 37 36 32 31 33 33 31 29 27 27 29 32 32 30 29 30 31 33 34 36 37 39 42
56 56 56 56 55 54 51 47 45 44 29 37 43 41 38 40 37 38 45 41 38 36 36 30 32 35 34 34 32 32 30 29 29 31 31 30 26 27 32 32 36 39 41 43 46
56 56 56 55 52 53 50 49 48 46 27 25 36 37 38 37 31 40 45 39 38 35 36 34 35 35 35 33 34 30 33 32 31 31 25 29 20 25 30 30 33 36 40 44 47
55 56 55 53 53 50 51 50 50 42 22 27 33 40 35 29 25 32 44 40 34 36 36 32 36 35 34 34 35 31 35 34 33 32 30 28 26 21 29 28 30 34 40 44 48
55 55 54 53 54 52 51 48 41 30 24 34 38 37 35 31 27 34 39 41 37 34 36 32 36 36 35 36 36 36 33 32 31 30 28 27 26 20 24 27 29 31 36 41 45
53 55 53 54 50 54 51 44 30 26 37 36 38 40 34 31 29 36 34 37 32 32 30 32 33 34 35 34 36 33 31 28 26 25 23 27 25 23 27 30 28 29 33 37 40
52 54 53 54 55 53 47 37 26 30 32 37 39 38 35 35 33 36 32 32 33 32 30 30 30 33 34 32 32 34 31 26 22 21 21 27 25 24 30 32 29 29 31 34 38
51 52 52 54 54 50 41 31 31 30 30 37 39 38 37 37 35 37 35 30 32 33 30 30 29 34 34 33 32 32 31 30 29 28 26 23 25 29 32 32 30 29 29 31 34
47 47 49 53 54 48 39 33 35 34 31 38 36 38 35 38 37 36 36 36 33 32 33 34 31 34 34 34 33 31 32 29 29 27 23 21 23 22 30 30 29 28 28 29 33
43 40 49 55 53 44 35 33 37 36 33 36 33 36 35 37 36 36 36 36 37 35 34 34 33 28 34 33 32 32 30 29 30 28 24 21 20 30 30 30 28 27 27 29 30
38 34 50 53 41 40 33 35 38 36 35 36 35 35 35 36 36 35 34 34 38 37 34 34 33 29 30 32 33 33 31 30 29 27 29 27 26 29 31 32 31 27 27 28 29
35 38 48 49 35 36 35 36 38 37 38 36 35 35 36 36 35 35 35 36 38 38 36 36 34 31 29 28 27 32 32 31 31 30 30 28 27 31 31 31 30 27 25 26 27
37 31 39 43 42 37 34 36 37 39 39 39 36 36 37 36 34 34 36 36 38 38 39 37 34 31 27 25 28 27 29 32 31 31 30 29 28 28 30 31 29 26 25 23 25
37 32 37 33 36 39 37 37 36 37 39 40 38 36 35 34 36 34 37 33 36 39 39 37 35 35 33 31 28 28 27 28 30 30 30 30 28 28 29 31 29 27 26 24 25
31 32 37 36 36 38 38 37 37 38 39 39 37 39 36 33 35 33 36 34 33 34 39 39 36 36 35 35 31 29 27 27 27 29 29 28 27 27 27 31 31 29 27 27 25
38 38 37 33 36 35 36 37 38 39 40 39 37 36 35 34 35 36 36 36 35 35 37 37 35 31 30 31 28 28 30 28 27 27 28 28 30 30 31 30 31 30 28 27 25
Wind_Speed
22 20 19 17 16 13 10 8 5 4 6 10 14 16 19 21 20 5 1 3 4 11 7 7 3 2 2 2 1 2 5 7 2 5 5 2 3 3 3 4 8 2 4 5 1
23 22 20 18 17 15 12 9 6 4 5 8 12 16 19 19 9 4 2 2 6 9 6 8 7 4 2 1 0 5 5 1 2 2 2 2 4 9 5 6 4 7 2 2 3
24 23 22 20 19 17 14 11 8 4 4 7 10 15 19 13 8 2 4 4 7 6 4 4 4 2 2 1 0 1 5 2 3 2 2 5 9 5 9 7 6 10 10 9 9
26 25 23 22 21 19 16 13 9 6 4 5 9 14 17 5 4 3 6 7 6 5 2 2 2 2 2 3 0 6 3 3 1 3 4 9 9 11 10 12 8 7 9 12 14
28 26 25 23 22 20 18 15 12 8 5 3 7 12 5 5 7 4 3 5 3 2 3 1 0 1 4 3 3 6 3 4 7 9 13 12 13 12 12 3 5 4 7 11 12
30 28 26 24 23 22 20 17 14 11 6 3 5 9 3 11 4 4 2 1 3 2 3 2 3 2 2 1 4 2 6 10 9 10 8 9 5 3 5 2 4 3 6 9 10
31 29 28 26 24 23 21 18 15 12 8 3 3 2 6 13 2 4 0 3 2 2 3 4 2 3 2 3 0 3 9 10 9 6 4 3 11 9 2 4 5 5 7 8 9
32 31 29 27 26 25 22 18 16 11 8 3 0 1 8 2 2 8 7 6 5 3 3 3 1 2 3 1 3 5 4 7 6 3 3 4 12 9 3 5 8 8 8 8 9
32 31 30 29 27 25 22 19 16 11 5 3 3 3 9 3 6 7 11 9 7 6 5 5 5 3 4 7 8 6 12 8 6 3 5 6 10 6 10 8 9 9 9 9 8
31 32 31 30 28 25 24 21 15 12 6 3 1 5 9 5 6 6 7 13 5 14 11 9 7 9 9 10 15 12 9 7 10 4 7 14 18 14 10 6 8 7 7 7 8
23 32 31 31 31 31 31 20 12 6 14 11 8 4 1 4 3 7 10 11 13 14 11 15 10 16 15 15 11 7 9 13 12 8 9 15 14 13 9 8 2 4 6 7 7
21 23 33 33 33 39 32 20 25 5 9 28 13 14 5 1 8 11 14 12 12 13 12 9 19 15 4 7 9 10 13 16 13 6 7 12 15 14 5 2 3 3 3 5 7
21 18 28 35 37 33 32 28 13 7 2 7 30 15 6 9 8 21 21 9 15 16 22 15 2 9 14 10 12 15 16 15 10 5 15 12 22 7 7 7 5 4 2 5 8
22 23 25 33 35 32 28 21 11 3 5 12 12 11 16 10 10 14 22 12 7 18 14 14 9 13 15 14 15 15 12 14 11 7 9 1 7 8 10 8 7 6 5 7 9
26 22 19 36 17 31 22 14 6 2 10 12 13 9 15 26 14 21 23 10 16 13 10 8 14 17 17 15 16 8 6 12 11 11 11 14 10 9 7 11 11 8 7 8 8
22 26 25 30 11 26 29 24 12 10 15 12 12 18 22 24 18 14 17 11 11 14 12 15 1 11 10 9 17 7 8 6 5 9 15 19 16 11 12 11 13 10 8 8 9
22 26 28 17 12 34 34 21 10 11 8 12 13 18 22 19 25 19 25 30 22 19 28 19 18 8 10 12 15 16 14 7 10 12 14 2 13 19 7 7 14 14 12 11 11
23 23 25 16 28 38 32 24 10 19 20 12 19 23 22 21 25 24 24 32 34 21 12 23 13 26 21 23 13 27 25 11 10 17 10 7 11 6 6 10 13 14 14 13 13
17 22 17 22 34 38 32 22 17 18 28 19 24 20 14 22 14 22 28 34 33 30 18 16 13 8 10 20 21 21 30 22 4 1 4 11 12 5 12 15 16 16 16 15 14
17 14 27 27 32 35 30 21 15 19 29 28 14 16 20 27 19 26 27 23 27 39 27 8 6 8 21 19 19 16 17 14 17 10 14 13 18 15 18 22 21 20 20 18 15
17 8 19 29 33 25 29 14 13 26 32 25 19 17 19 21 22 28 23 9 31 29 30 13 10 6 14 18 25 14 21 14 16 17 14 14 12 6 23 28 28 25 23 21 18
17 17 20 35 35 22 19 13 14 29 27 17 20 16 24 26 24 24 20 15 24 27 33 22 9 13 18 3 16 28 24 27 18 14 23 19 27 6 12 20 24 25 25 22 20
16 18 14 36 34 17 12 16 21 26 26 22 16 14 18 19 15 22 21 14 20 29 26 26 12 12 6 7 10 21 28 29 29 11 24 19 14 8 8 16 22 23 22 22 21
15 11 11 17 35 22 18 23 23 32 30 20 17 14 18 18 22 23 16 7 20 26 18 29 11 18 21 9 13 24 26 30 28 27 28 36 28 16 14 19 22 23 22 22 19
15 8 8 21 24 35 28 26 32 19 19 25 14 26 21 17 26 14 20 9 9 17 19 22 12 22 20 6 7 15 23 27 33 39 31 39 33 32 21 22 25 26 23 24 22
10 5 7 11 24 38 28 33 28 25 25 30 21 29 32 23 25 26 18 11 13 8 20 16 12 11 19 20 14 16 19 21 33 37 34 38 36 28 20 18 22 25 26 26 26
12 5 7 19 19 24 38 26 32 31 27 34 38 32 32 33 12 1 11 14 15 20 23 15 16 8 22 13 7 14 37 29 30 33 33 36 44 25 17 24 28 28 29 28 23
Wind_Direction
207 208 210 209 211 218 222 226 240 287 322 330 333 336 337 337 322 296 228 28 345 325 306 326 295 356 215 107 45 266 233 226 211 205 118 50 351 49 343 278 318 334 320 8 68
206 206 206 207 210 212 217 221 229 260 307 325 329 331 332 336 318 279 72 342 334 335 352 9 19 360 150 88 39 257 251 199 80 111 137 316 312 323 302 313 286 305 202 260 216
205 205 203 204 206 208 212 213 216 225 281 316 327 329 327 325 296 140 51 343 345 315 344 327 316 346 150 190 236 234 282 138 166 116 321 301 294 278 302 272 302 314 311 289 262
203 204 202 200 203 203 204 207 208 205 234 306 325 327 323 299 286 110 26 354 342 313 326 337 312 210 171 196 198 259 253 249 194 208 268 282 293 275 274 278 325 307 303 290 269
200 201 201 200 198 202 199 198 196 199 213 273 319 327 315 254 255 110 12 2 340 317 37 78 20 223 218 176 213 250 248 255 254 267 272 270 267 275 261 261 295 316 304 313 296
198 198 199 197 196 198 197 193 187 187 196 241 323 316 247 252 96 132 67 117 87 119 80 59 89 50 116 241 276 339 285 276 279 271 262 268 268 245 136 289 307 342 354 350 333
196 196 196 193 193 194 193 187 182 181 181 194 341 334 253 248 129 156 191 143 102 60 92 81 84 234 169 186 324 296 297 283 259 255 240 259 245 233 131 320 302 350 9 1 1
195 194 193 193 190 189 186 179 173 172 173 159 339 211 259 199 234 244 198 221 234 235 254 153 44 136 234 169 211 260 263 278 119 215 147 218 281 168 339 327 310 335 344 348 356
196 193 190 188 186 183 174 166 159 154 145 149 207 231 259 145 222 238 203 208 198 191 188 188 204 214 193 232 243 204 267 250 274 238 270 240 294 274 303 300 302 321 328 337 349
202 191 188 184 179 172 156 144 131 131 147 162 190 260 227 208 162 148 171 166 152 148 146 182 195 217 218 213 261 277 240 227 258 154 268 275 276 279 290 297 317 323 337 344 2
229 193 186 182 171 154 138 129 149 194 192 198 196 222 98 136 179 174 154 159 143 162 186 191 206 214 222 226 275 264 253 257 261 266 291 271 276 277 278 283 339 19 2 5 14
223 210 188 177 165 157 165 184 188 129 199 225 234 240 236 292 177 180 171 170 180 190 164 174 228 231 234 214 220 232 248 257 272 273 234 278 275 277 295 168 99 43 31 5 19
213 216 198 174 159 167 183 192 168 171 201 186 219 224 198 198 218 186 182 192 201 191 196 215 141 201 200 196 209 229 237 247 254 261 258 279 270 234 169 147 138 125 99 54 37
209 209 207 170 163 171 187 184 169 204 229 202 195 219 205 181 241 193 196 182 196 212 205 237 200 181 186 210 210 239 234 240 247 253 256 218 273 191 174 177 175 144 104 74 55
201 202 189 164 151 177 158 138 139 173 221 191 165 142 179 185 142 197 189 196 206 180 182 195 189 202 209 216 200 238 201 211 224 242 275 243 255 231 196 202 172 147 118 96 85
211 193 180 184 172 166 125 97 80 137 220 179 157 176 168 200 197 148 178 214 227 218 229 248 183 208 209 194 196 155 158 160 210 246 250 240 230 250 203 212 162 148 132 114 104
216 195 178 178 181 143 132 121 136 203 145 194 174 165 185 183 190 188 184 192 188 196 220 218 215 191 185 164 191 191 182 198 226 216 243 151 225 241 157 171 171 157 143 136 128
211 193 188 185 154 146 144 146 184 198 187 153 161 165 186 168 201 194 192 200 210 215 206 210 207 209 200 208 195 207 202 208 231 230 243 150 230 211 209 169 160 158 155 145 137
201 206 195 193 167 151 151 194 192 175 182 160 152 161 183 189 181 186 202 207 204 198 204 201 222 186 200 204 208 203 218 227 275 355 270 231 234 217 173 175 171 170 169 163 155
206 235 205 174 175 168 174 196 206 196 172 160 162 175 179 187 184 190 188 208 205 207 213 203 188 192 188 205 214 212 195 193 217 229 238 244 247 251 181 187 185 184 187 178 171
198 221 178 166 177 193 206 181 196 196 174 176 179 176 185 181 198 193 189 178 197 192 197 185 224 147 159 202 196 187 195 213 212 227 235 256 246 187 200 196 190 193 193 188 185
194 223 188 160 187 201 189 167 189 182 196 195 180 154 182 180 193 192 200 211 190 172 192 194 204 201 206 163 236 210 212 205 205 202 234 262 268 161 205 198 197 197 195 195 193
197 227 203 176 195 180 149 188 186 175 189 190 190 169 166 170 185 200 200 186 175 176 173 181 202 185 203 209 206 221 219 219 225 246 230 218 243 165 182 194 201 201 197 201 202
195 191 196 212 201 172 160 181 178 183 188 185 185 173 156 175 202 199 194 157 183 188 184 177 184 202 212 222 182 207 218 219 222 226 234 235 247 215 202 207 203 202 198 196 193
204 217 217 213 201 195 161 180 173 163 177 180 185 182 175 180 198 198 179 145 186 190 182 183 222 221 234 234 216 213 220 217 217 228 225 244 241 248 237 217 207 203 199 201 200
160 215 188 262 185 200 172 190 178 176 170 196 195 194 189 196 196 196 172 165 173 191 189 201 212 198 230 228 237 241 239 232 225 235 236 247 252 251 270 209 219 207 204 206 212
187 197 303 221 198 212 198 184 188 172 185 190 198 192 203 209 204 217 177 178 159 173 190 188 202 192 235 206 220 251 237 230 236 236 239 242 247 253 245 225 216 212 207 209 214